Latest Coastal Weather Observations for Melbourne

IDV60701

Issued at 5:55 pm EST Monday 1 September 2014 (issued every 10 minutes, with the page automatically refreshed every 10 minutes)

About coastal observations | Map of coastal stations | Coastal observations for VIC | Marine services | Other Formats
Station Details ID: 086071 Name: MELBOURNE REGIONAL OFFICE Lat: -37.81 Lon: 144.97 Height: 31.15 m
Data from the previous 72 hours. | See also: Recent months at Melbourne
Date/Time
EST
Temp

°C
Wind Pressure Rain
since 9am
mm
Weather Cloud Vis
km
Sea
Height
m
Swell
Dir
 
Speed
knots
Gust
knots
hPa Trend Height
m
Period
s
Dir
01/05:30pm 12.5 - - - 1009.8 - 6.0 - - - - - - -
01/05:00pm 12.3 - - - 1009.2 - 5.6 - - - - - - -
01/04:30pm 12.3 - - - 1009.1 - 5.6 - - - - - - -
01/04:00pm 12.2 - - - 1008.7 - 5.6 - - - - - - -
01/03:30pm 12.4 - - - 1008.8 - 5.0 - - - - - - -
01/03:00pm 12.4 - - - 1008.6 R 4.8 Recent precip. Cloudy 20 - - - -
01/02:30pm 12.5 - - - 1008.7 - 4.6 - - - - - - -
01/02:00pm 13.2 - - - 1008.1 - 2.8 - - - - - - -
01/01:30pm 13.1 - - - 1008.5 - 2.8 - - - - - - -
01/01:00pm 13.3 - - - 1008.9 - 2.4 - - - - - - -
01/12:30pm 13.2 - - - 1008.6 - 2.2 - - - - - - -
01/12:00pm 13.0 - - - 1008.9 R 1.8 Rain Cloudy 25 - - - -
01/11:30am 12.8 - - - 1008.7 - 1.6 - - - - - - -
01/11:00am 15.0 - - - 1009.0 - 0.0 - - - - - - -
01/10:30am 15.3 - - - 1009.3 - 0.0 - - - - - - -
01/10:00am 15.1 - - - 1009.1 - 0.0 - - - - - - -
01/09:30am 14.9 - - - 1009.4 - 0.0 - - - - - - -
01/09:00am 15.2 - - - 1008.8 F 0.0 Distant precip. Mostly cloudy 30 - - - -
01/08:30am 15.0 - - - 1008.7 - 0.0 - - - - - - -
01/08:00am 15.3 - - - 1008.9 - 0.0 - - - - - - -
01/07:30am 15.3 - - - 1008.3 - 0.0 - - - - - - -
01/07:00am 15.5 - - - 1008.2 - 0.0 - - - - - - -
01/06:30am 15.5 - - - 1008.7 - 0.0 - - - - - - -
01/06:00am 15.8 - - - 1008.8 - 0.0 - - - - - - -
01/05:30am 16.3 - - - 1008.8 - 0.0 - - - - - - -
01/05:00am 16.8 - - - 1008.1 - 0.0 - - - - - - -
01/04:30am 17.0 - - - 1007.7 - 0.0 - - - - - - -
01/04:00am 16.7 - - - 1008.1 - 0.0 - - - - - - -
01/03:30am 16.6 - - - 1008.8 - 0.0 - - - - - - -
01/03:00am 16.6 - - - 1009.0 - 0.0 - - - - - - -
01/02:30am 17.1 - - - 1009.1 - 0.0 - - - - - - -
01/02:00am 17.8 - - - 1009.5 - 0.0 - - - - - - -
01/01:30am 17.7 - - - 1010.0 - 0.0 - - - - - - -
01/01:00am 17.4 - - - 1010.3 - 0.0 - - - - - - -
01/12:30am 17.2 - - - 1010.3 - 0.0 - - - - - - -
01/12:00am 17.7 - - - 1010.3 - 0.0 - - - - - - -
 
Date/Time
EST
Temp

°C
Wind Pressure Rain
since 9am
mm
Weather Cloud Vis
km
Sea
Height
m
Swell
Dir
 
Speed
knots
Gust
knots
hPa Trend Height
m
Period
s
Dir
31/11:30pm 17.8 - - - 1010.1 - 0.0 - - - - - - -
31/11:00pm 17.4 - - - 1010.4 - 0.0 - - - - - - -
31/10:30pm 17.4 - - - 1011.3 - 0.0 - - - - - - -
31/10:00pm 17.3 - - - 1012.0 - 0.0 - - - - - - -
31/09:30pm 17.5 - - - 1012.7 - 0.0 - - - - - - -
31/09:00pm 17.6 - - - 1012.6 - 0.0 - - - - - - -
31/08:30pm 17.5 - - - 1012.8 - 0.0 - - - - - - -
31/08:00pm 17.8 - - - 1013.1 - 0.0 - - - - - - -
31/07:30pm 17.9 - - - 1013.3 - 0.0 - - - - - - -
31/07:00pm 18.1 - - - 1013.3 - 0.0 - - - - - - -
31/06:30pm 18.2 - - - 1013.5 - 0.0 - - - - - - -
31/06:00pm 18.5 - - - 1013.9 - 0.0 - - - - - - -
31/05:30pm 19.0 - - - 1014.1 - 0.0 - - - - - - -
31/05:00pm 19.4 - - - 1014.0 - 0.0 - - - - - - -
31/04:30pm 19.7 - - - 1013.8 - 0.0 - - - - - - -
31/04:00pm 19.8 - - - 1013.8 - 0.0 - - - - - - -
31/03:30pm 20.0 - - - 1014.0 - 0.0 - - - - - - -
31/03:00pm 20.9 - - - 1014.5 - 0.0 - - - - - - -
31/02:30pm 20.5 - - - 1015.1 - 0.0 - - - - - - -
31/02:00pm 20.1 - - - 1015.0 - 0.0 - - - - - - -
31/01:30pm 20.8 - - - 1015.4 - 0.0 - - - - - - -
31/01:00pm 21.0 - - - 1015.7 - 0.0 - - - - - - -
31/12:30pm 20.2 - - - 1016.2 - 0.0 - - - - - - -
31/12:00pm 20.5 - - - 1016.9 - 0.0 - - - - - - -
31/11:30am 20.1 - - - 1017.2 - 0.0 - - - - - - -
31/11:00am 18.6 - - - 1017.6 - 0.0 - - - - - - -
31/10:30am 17.5 - - - 1018.0 - 0.0 - - - - - - -
31/10:00am 16.9 - - - 1018.4 - 0.0 - - - - - - -
31/09:30am 16.2 - - - 1018.9 - 0.0 - - - - - - -
31/09:00am 15.3 - - - 1019.2 - 0.0 - - - - - - -
31/08:30am 13.9 - - - 1019.1 - 0.0 - - - - - - -
31/08:00am 12.8 - - - 1019.2 - 0.0 - - - - - - -
31/07:30am 12.2 - - - 1019.4 - 0.0 - - - - - - -
31/07:00am 11.9 - - - 1019.2 - 0.0 - - - - - - -
31/06:30am 11.8 - - - 1019.2 - 0.0 - - - - - - -
31/06:00am 11.8 - - - 1019.0 - 0.0 - - - - - - -
31/05:30am 11.5 - - - 1018.7 - 0.0 - - - - - - -
31/05:00am 11.1 - - - 1018.6 - 0.0 - - - - - - -
31/04:30am 11.0 - - - 1018.8 - 0.0 - - - - - - -
31/04:00am 11.4 - - - 1018.8 - 0.0 - - - - - - -
31/03:30am 11.6 - - - 1018.9 - 0.0 - - - - - - -
31/03:00am 11.4 - - - 1019.1 - 0.0 - - - - - - -
31/02:30am 11.4 - - - 1019.3 - 0.0 - - - - - - -
31/02:00am 11.6 - - - 1019.6 - 0.0 - - - - - - -
31/01:30am 11.9 - - - 1019.9 - 0.0 - - - - - - -
31/01:00am 12.1 - - - 1020.1 - 0.0 - - - - - - -
31/12:30am 12.6 - - - 1020.3 - 0.0 - - - - - - -
31/12:00am 12.6 - - - 1020.5 - 0.0 - - - - - - -
 
Date/Time
EST
Temp

°C
Wind Pressure Rain
since 9am
mm
Weather Cloud Vis
km
Sea
Height
m
Swell
Dir
 
Speed
knots
Gust
knots
hPa Trend Height
m
Period
s
Dir
30/11:30pm 13.1 - - - 1020.7 - 0.0 - - - - - - -
30/11:00pm 13.5 - - - 1021.0 - 0.0 - - - - - - -
30/10:30pm 14.1 - - - 1021.4 - 0.0 - - - - - - -
30/10:00pm 14.7 - - - 1021.7 - 0.0 - - - - - - -
30/09:30pm 15.2 - - - 1021.8 - 0.0 - - - - - - -
30/09:00pm 15.4 - - - 1021.9 - 0.0 - - - - - - -
30/08:30pm 16.2 - - - 1021.7 - 0.0 - - - - - - -
30/08:00pm 17.0 - - - 1021.5 - 0.0 - - - - - - -
30/07:30pm 17.6 - - - 1021.4 - 0.0 - - - - - - -
30/07:00pm 18.0 - - - 1021.2 - 0.0 - - - - - - -
30/06:30pm 18.5 - - - 1021.4 - 0.0 - - - - - - -
30/06:00pm 18.9 - - - 1021.5 - 0.0 - - - - - - -
30/05:30pm 19.4 - - - 1021.3 - 0.0 - - - - - - -
30/05:00pm 20.2 - - - 1021.3 - 0.0 - - - - - - -
30/04:30pm 20.5 - - - 1021.3 - 0.0 - - - - - - -
30/04:00pm 20.5 - - - 1021.2 - 0.0 - - - - - - -
30/03:30pm 20.9 - - - 1021.3 - 0.0 - - - - - - -
30/03:00pm 20.5 - - - 1021.5 - 0.0 - - - - - - -
30/02:30pm 21.0 - - - 1021.7 - 0.0 - - - - - - -
30/02:00pm 20.1 - - - 1022.1 - 0.0 - - - - - - -
30/01:30pm 20.6 - - - 1022.3 - 0.0 - - - - - - -
30/01:00pm 20.0 - - - 1023.0 - 0.0 - - - - - - -
30/12:30pm 19.9 - - - 1023.3 - 0.0 - - - - - - -
30/12:00pm 19.2 - - - 1023.8 - 0.0 - - - - - - -
30/11:30am 18.2 - - - 1024.3 - 0.0 - - - - - - -
30/11:00am 16.3 - - - 1024.7 - 0.0 - - - - - - -
30/10:30am 15.3 - - - 1025.3 - 0.0 - - - - - - -
30/10:00am 13.7 - - - 1025.8 - 0.0 - - - - - - -
30/09:30am 12.7 - - - 1026.0 - 0.0 - - - - - - -
30/09:00am 12.1 - - - 1026.3 - 0.0 - - - - - - -
30/08:30am 12.0 - - - 1026.3 - 0.0 - - - - - - -
30/08:00am 11.4 - - - 1026.3 - 0.0 - - - - - - -
30/07:30am 11.4 - - - 1026.1 - 0.0 - - - - - - -
30/07:00am 11.3 - - - 1025.9 - 0.0 - - - - - - -
30/06:30am 11.4 - - - 1025.7 - 0.0 - - - - - - -
30/06:00am 11.6 - - - 1025.5 - 0.0 - - - - - - -
30/05:30am 11.7 - - - 1025.5 - 0.0 - - - - - - -
30/05:00am 11.8 - - - 1025.4 - 0.0 - - - - - - -
30/04:30am 11.8 - - - 1025.5 - 0.0 - - - - - - -
30/04:00am 11.9 - - - 1025.6 - 0.0 - - - - - - -
30/03:30am 11.9 - - - 1025.6 - 0.0 - - - - - - -
30/03:00am 12.0 - - - 1025.8 - 0.0 - - - - - - -
30/02:30am 12.0 - - - 1026.0 - 0.0 - - - - - - -
30/02:00am 12.0 - - - 1026.2 - 0.0 - - - - - - -
30/01:30am 12.0 - - - 1026.5 - 0.0 - - - - - - -
30/01:00am 12.0 - - - 1026.7 - 0.0 - - - - - - -
30/12:30am 12.0 - - - 1026.9 - 0.0 - - - - - - -
30/12:00am 12.0 - - - 1027.2 - 0.0 - - - - - - -
 
Date/Time
EST
Temp

°C
Wind Pressure Rain
since 9am
mm
Weather Cloud Vis
km
Sea
Height
m
Swell
Dir
 
Speed
knots
Gust
knots
hPa Trend Height
m
Period
s
Dir
29/11:30pm 12.0 - - - 1027.4 - 0.0 - - - - - - -
29/11:00pm 12.1 - - - 1027.4 - 0.0 - - - - - - -
29/10:30pm 12.3 - - - 1027.5 - 0.0 - - - - - - -
29/10:00pm 12.2 - - - 1027.7 - 0.0 - - - - - - -
29/09:30pm 12.6 - - - 1027.8 - 0.0 - - - - - - -
29/09:00pm 12.6 - - - 1027.9 - 0.0 - - - - - - -
29/08:30pm 12.7 - - - 1027.9 - 0.0 - - - - - - -
29/08:00pm 12.7 - - - 1027.8 - 0.0 - - - - - - -
29/07:30pm 12.7 - - - 1027.8 - 0.0 - - - - - - -
29/07:00pm 13.2 - - - 1027.8 - 0.0 - - - - - - -
29/06:30pm 13.5 - - - 1027.6 - 0.0 - - - - - - -
29/06:00pm 13.9 - - - 1027.6 - 0.0 - - - - - - -

Other Formats:

Comma delimited format used in spreadsheet applications
http://www.bom.gov.au/fwo/IDV60701/IDV60701.94868.axf

JavaScript Object Notation format (JSON) in row-major order
http://www.bom.gov.au/fwo/IDV60701/IDV60701.94868.json